World > North America > United States > Mississippi > Muldon  

Muldon, MS Hourly Weather Updates

Feedback E-mail the Weather

Quick Clicks

Muldon, MS Weather Maps

°F °C°F °C
Muldon Weather Map
UTC Time: 4/21/2024, 21:35
Your Time:

Muldon, MS Regional Weather

Expires:202404212200;;149603
ASUS44 KJAN 212110
RWRMS 

MISSISSIPPI HOURLY WEATHER ROUNDUP
NATIONAL WEATHER SERVICE JACKSON MS
400 PM CDT SUN APR 21 2024

NOTE: "FAIR: INDICATES FEW OR NO CLOUDS BELOW 12,000 FEET WITH NO
SIGNIFICANT WEATHER AND/OR OBSTRUCTIONS TO VISIBILITY.


MSZ003>006-009-014>017-022>024-029>033-037>039-212200-
NORTHEAST MISSISSIPPI
  
CITY           SKY/WX    TMP DP  RH WIND       PRES   REMARKS
ABERDEEN       SUNNY     64  39  39 N12       30.12F                  
COLUMBUS AFB   SUNNY     66  36  32 NW15G21   30.08F                  
CORINTH        MOSUNNY   59  34  38 NW15      30.14F                  
GOLDN TRIANGLE SUNNY     65  41  41 N14       30.11F                  
IUKA             N/A     61  36  39 VRB3      30.11F                  
LOUISVILLE     SUNNY     63  41  45 N10G21    30.14F                  
STARKVILLE     SUNNY     64  41  42 N10G17    30.10F                  
TUPELO         SUNNY     65  35  33 N14G23    30.12F                  
$$


SKY/WX - Weather  TMP - Temperature  DP - Dew Point  RH - Humidity
WIND - Wind Direction/Speed PRES - Barometric Pressure VSB - Visibility
WCI - Wind Chill Index E13G22 Wind - East Wind 13 mph/Gusts of 22 mph

Trending Headlines

Trending Entertainment Headlines

Muldon Radar Loop

Use the map search tool if you want to place a location marker on the radar map...

Muldon Quick Facts

National Two Day Weather Forecast


E-mail the Muldon Weather Forecast

Voice your opinion or tell us about page issues...